TimeCST,TemperatureF,Dew PointF,Humidity,Sea Level PressureIn,VisibilityMPH,Wind Direction,Wind SpeedMPH,Gust SpeedMPH,PrecipitationIn,Events,Conditions,WindDirDegrees,DateUTC
12:53 AM,41.0,30.9,67,30.29,10.0,East,6.9,-,N/A,,Clear,80,2013-01-10 06:53:00
1:53 AM,42.1,30.9,65,30.27,10.0,East,8.1,-,N/A,,Overcast,80,2013-01-10 07:53:00
2:53 AM,41.0,33.1,73,30.25,10.0,ENE,9.2,-,0.00,Rain,Light Rain,70,2013-01-10 08:53:00
3:17 AM,41.0,33.8,76,30.21,8.0,East,12.7,-,0.00,Rain,Light Rain,80,2013-01-10 09:17:00
4:43 AM,39.2,37.4,93,30.14,2.0,East,11.5,-,N/A,Rain,Rain,100,2013-01-10 10:43:00
4:53 AM,39.9,37.0,89,30.16,9.0,East,10.4,-,0.04,,Overcast,90,2013-01-10 10:53:00
5:32 AM,39.2,37.4,93,30.11,4.0,East,13.8,-,0.02,Rain,Light Rain,90,2013-01-10 11:32:00
5:40 AM,39.2,37.4,93,30.11,2.0,East,11.5,-,0.03,Rain,Light Rain,90,2013-01-10 11:40:00
6:26 AM,39.2,37.4,93,30.10,2.0,East,11.5,-,0.01,Rain,Light Rain,100,2013-01-10 12:26:00
6:37 AM,39.2,37.4,93,30.09,5.0,East,11.5,-,0.01,Rain,Light Rain,90,2013-01-10 12:37:00
6:51 AM,39.2,37.4,93,30.08,2.5,East,11.5,-,0.02,Rain,Light Rain,90,2013-01-10 12:51:00
6:53 AM,39.0,37.9,96,30.11,2.5,East,11.5,-,0.02,Rain,Light Rain,90,2013-01-10 12:53:00
7:02 AM,39.2,37.4,93,30.08,3.0,East,10.4,-,0.00,Rain,Light Rain,90,2013-01-10 13:02:00
7:53 AM,39.0,37.9,96,30.09,6.0,East,11.5,-,0.00,,Overcast,90,2013-01-10 13:53:00
8:41 AM,39.2,39.2,100,30.04,1.8,East,12.7,-,N/A,,Overcast,100,2013-01-10 14:41:00
8:45 AM,39.2,39.2,100,30.03,1.2,East,12.7,-,N/A,,Overcast,90,2013-01-10 14:45:00
8:53 AM,39.9,39.0,97,30.05,1.0,East,12.7,-,N/A,,Overcast,90,2013-01-10 14:53:00
9:17 AM,41.0,39.2,93,30.02,1.5,East,11.5,-,N/A,,Overcast,100,2013-01-10 15:17:00
9:27 AM,41.0,39.2,93,30.02,1.2,ESE,11.5,-,N/A,,Overcast,110,2013-01-10 15:27:00
9:46 AM,41.0,39.2,93,30.01,1.5,ESE,11.5,-,N/A,,Overcast,110,2013-01-10 15:46:00
9:53 AM,41.0,39.9,96,30.03,1.2,ESE,10.4,-,0.00,Rain,Light Rain,110,2013-01-10 15:53:00
10:03 AM,42.8,41.0,93,30.00,2.0,ESE,11.5,-,0.01,Rain,Light Rain,110,2013-01-10 16:03:00
10:41 AM,42.8,41.0,93,29.96,4.0,ESE,9.2,-,0.02,Rain,Light Rain,110,2013-01-10 16:41:00
10:53 AM,42.1,41.0,96,29.99,3.0,ESE,11.5,-,0.03,Rain,Light Rain,110,2013-01-10 16:53:00
11:06 AM,42.8,41.0,93,29.96,3.0,ESE,10.4,-,0.01,Rain,Light Rain,110,2013-01-10 17:06:00
11:15 AM,42.8,41.0,93,29.95,1.8,ESE,6.9,-,0.03,Rain,Rain,110,2013-01-10 17:15:00
11:34 AM,42.8,42.8,100,29.93,3.0,ESE,10.4,-,0.04,Rain,Light Rain,110,2013-01-10 17:34:00
11:53 AM,43.0,42.1,97,29.95,3.0,ESE,9.2,-,0.05,Rain,Light Rain,120,2013-01-10 17:53:00
12:01 PM,44.6,42.8,93,29.92,2.0,ESE,9.2,-,0.00,Rain,Light Rain,120,2013-01-10 18:01:00
12:14 PM,44.6,42.8,93,29.91,1.5,SE,8.1,-,0.00,,Overcast,130,2013-01-10 18:14:00
12:22 PM,44.6,42.8,93,29.90,1.2,ESE,8.1,-,0.00,,Overcast,120,2013-01-10 18:22:00
12:31 PM,44.6,42.8,93,29.89,1.8,ESE,10.4,-,0.00,,Overcast,120,2013-01-10 18:31:00
12:39 PM,44.6,42.8,93,29.88,2.5,ESE,9.2,-,0.00,,Overcast,120,2013-01-10 18:39:00
12:53 PM,45.0,44.1,97,29.90,4.0,ESE,8.1,-,0.00,,Overcast,120,2013-01-10 18:53:00
1:53 PM,45.0,44.1,97,29.86,6.0,ESE,3.5,-,0.01,Rain,Light Rain,110,2013-01-10 19:53:00
2:30 PM,44.6,44.6,100,29.84,2.0,ESE,4.6,-,0.00,,Overcast,110,2013-01-10 20:30:00
2:41 PM,44.6,44.6,100,29.84,1.8,Calm,Calm,-,0.00,,Overcast,0,2013-01-10 20:41:00
2:48 PM,44.6,44.6,100,29.84,1.0,Calm,Calm,-,0.01,Rain,Light Rain,0,2013-01-10 20:48:00
2:53 PM,45.0,44.1,97,29.86,1.0,Calm,Calm,-,0.01,Rain,Light Rain,0,2013-01-10 20:53:00
3:07 PM,46.4,44.6,93,29.83,1.2,East,4.6,-,0.00,Rain,Light Rain,90,2013-01-10 21:07:00
3:15 PM,46.4,44.6,93,29.83,1.8,East,4.6,-,0.01,Rain,Light Rain,90,2013-01-10 21:15:00
3:22 PM,46.4,44.6,93,29.82,2.5,East,4.6,-,0.01,,Overcast,80,2013-01-10 21:22:00
3:30 PM,46.4,44.6,93,29.82,4.0,East,4.6,-,0.01,,Overcast,100,2013-01-10 21:30:00
3:53 PM,46.0,45.0,96,29.85,10.0,East,3.5,-,0.01,,Overcast,100,2013-01-10 21:53:00
4:14 PM,46.4,44.6,93,29.83,7.0,Calm,Calm,-,N/A,,Overcast,0,2013-01-10 22:14:00
4:36 PM,46.4,44.6,93,29.83,2.0,Calm,Calm,-,N/A,,Overcast,0,2013-01-10 22:36:00
4:42 PM,46.4,44.6,93,29.83,1.2,SE,4.6,-,N/A,,Overcast,130,2013-01-10 22:42:00
4:53 PM,46.0,45.0,96,29.85,0.8,Calm,Calm,-,0.00,Rain,Light Rain,0,2013-01-10 22:53:00
5:34 PM,44.6,44.6,100,29.80,1.0,East,6.9,-,0.00,,Mist,100,2013-01-10 23:34:00
5:41 PM,44.6,44.6,100,29.79,0.5,East,6.9,-,0.00,Fog,Fog,80,2013-01-10 23:41:00
5:53 PM,45.0,44.1,97,29.80,0.2,ENE,8.1,-,0.00,Fog,Fog,60,2013-01-10 23:53:00
6:53 PM,45.0,44.1,97,29.82,0.5,South,3.5,-,N/A,Fog,Fog,190,2013-01-11 00:53:00
7:53 PM,45.0,44.1,97,29.79,0.2,SSE,3.5,-,N/A,Fog,Fog,150,2013-01-11 01:53:00
8:53 PM,45.0,43.0,93,29.80,0.2,SE,5.8,-,0.01,Fog,Fog,130,2013-01-11 02:53:00
9:50 PM,44.6,44.6,100,29.77,0.5,South,5.8,-,N/A,Fog,Fog,170,2013-01-11 03:50:00
9:53 PM,45.0,44.1,97,29.79,0.5,SSE,5.8,-,0.00,Fog-Rain,Light Rain,160,2013-01-11 03:53:00
10:22 PM,44.6,44.6,100,29.76,1.0,South,5.8,-,0.00,,Overcast,190,2013-01-11 04:22:00
10:40 PM,44.6,44.6,100,29.76,1.5,South,6.9,-,0.00,,Overcast,170,2013-01-11 04:40:00
11:10 PM,44.6,44.6,100,29.74,1.0,South,6.9,-,N/A,,Overcast,180,2013-01-11 05:10:00
11:31 PM,46.4,44.6,93,29.74,1.2,South,6.9,-,N/A,,Overcast,180,2013-01-11 05:31:00
11:40 PM,46.4,44.6,93,29.74,1.0,SSE,6.9,-,N/A,,Overcast,160,2013-01-11 05:40:00
11:53 PM,46.0,45.0,96,29.76,0.8,South,10.4,-,N/A,,Mist,170,2013-01-11 05:53:00